| time (UTC) | temp C | wind direction | speed KPH | gust KPH | rain 1hr cm | rain 24hr cm | rain mn cm | humidity % | barometer mb |
| 20260504215005 | 23 | 46 | 3.2 | 8.0 | 0.00 | 0.00 | 0.00 | 31 | 1001.9 |
| 20260504214606 | 22 | 295 | 1.6 | 11.3 | 0.00 | 0.00 | 0.00 | 32 | 1001.9 |
| 20260504214039 | 22 | 295 | 3.2 | 11.3 | 0.00 | 0.00 | 0.00 | 32 | 1001.9 |
| 20260504213511 | 22 | 293 | 1.6 | 6.4 | 0.00 | 0.00 | 0.00 | 35 | 1001.8 |
| 20260504213102 | 22 | 279 | 0.0 | 9.7 | 0.00 | 0.00 | 0.00 | 35 | 1001.9 |
| 20260504212542 | 22 | 40 | 3.2 | 8.0 | 0.00 | 0.00 | 0.00 | 34 | 1002.1 |
| 20260504212012 | 22 | 283 | 1.6 | 12.9 | 0.00 | 0.00 | 0.00 | 33 | 1002.0 |
| 20260504211601 | 22 | 292 | 1.6 | 12.9 | 0.00 | 0.00 | 0.00 | 34 | 1002.1 |
| 20260504211040 | 22 | 186 | 3.2 | 12.9 | 0.00 | 0.00 | 0.00 | 33 | 1002.1 |
| 20260504210511 | 22 | 118 | 1.6 | 22.5 | 0.00 | 0.00 | 0.00 | 32 | 1002.2 |
| 20260504205543 | 23 | 298 | 4.8 | 14.5 | 0.00 | 0.00 | 0.00 | 33 | 1002.3 |
| 20260504205014 | 23 | 107 | 4.8 | 14.5 | 0.00 | 0.00 | 0.00 | 33 | 1002.3 |
| 20260504204622 | 23 | 289 | 3.2 | 19.3 | 0.00 | 0.00 | 0.00 | 32 | 1002.3 |
| 20260504204046 | 23 | 241 | 4.8 | 19.3 | 0.00 | 0.00 | 0.00 | 34 | 1002.4 |
| 20260504203527 | 23 | 215 | 3.2 | 17.7 | 0.00 | 0.00 | 0.00 | 31 | 1002.3 |
| 20260504203110 | 23 | 259 | 3.2 | 17.7 | 0.00 | 0.00 | 0.00 | 34 | 1002.3 |
| 20260504202551 | 23 | 44 | 3.2 | 11.3 | 0.00 | 0.00 | 0.00 | 34 | 1002.4 |
| 20260504202034 | 22 | 271 | 4.8 | 11.3 | 0.00 | 0.00 | 0.00 | 32 | 1002.5 |
| 20260504201504 | 22 | 348 | 3.2 | 17.7 | 0.00 | 0.00 | 0.00 | 37 | 1002.5 |
| 20260504201054 | 22 | 303 | 6.4 | 17.7 | 0.00 | 0.00 | 0.00 | 34 | 1002.6 |
| 20260504200533 | 22 | 300 | 4.8 | 12.9 | 0.00 | 0.00 | 0.00 | 35 | 1002.8 |
| 20260504200003 | 22 | 182 | 3.2 | 14.5 | 0.00 | 0.00 | 0.00 | 36 | 1002.9 |
| 20260504195556 | 22 | 347 | 4.8 | 14.5 | 0.00 | 0.00 | 0.00 | 35 | 1003.0 |
| 20260504195036 | 22 | 9 | 4.8 | 14.5 | 0.00 | 0.00 | 0.00 | 34 | 1003.0 |
| 20260504194508 | 22 | 313 | 4.8 | 20.9 | 0.00 | 0.00 | 0.00 | 36 | 1003.1 |
| 20260504194100 | 22 | 309 | 4.8 | 20.9 | 0.00 | 0.00 | 0.00 | 35 | 1003.2 |
| 20260504193541 | 22 | 355 | 4.8 | 27.4 | 0.00 | 0.00 | 0.00 | 36 | 1003.4 |
| 20260504193021 | 22 | 52 | 8.0 | 27.4 | 0.00 | 0.00 | 0.00 | 35 | 1003.4 |
| 20260504192606 | 22 | 290 | 4.8 | 19.3 | 0.00 | 0.00 | 0.00 | 38 | 1003.5 |
| 20260504192043 | 22 | 301 | 6.4 | 16.1 | 0.00 | 0.00 | 0.00 | 35 | 1003.6 |
| 20260504191518 | 22 | 200 | 4.8 | 19.3 | 0.00 | 0.00 | 0.00 | 36 | 1003.6 |
| 20260504191107 | 22 | 304 | 4.8 | 19.3 | 0.00 | 0.00 | 0.00 | 36 | 1003.6 |
| 20260504190551 | 22 | 288 | 4.8 | 14.5 | 0.00 | 0.00 | 0.00 | 36 | 1003.8 |
| 20260504190028 | 22 | 33 | 6.4 | 19.3 | 0.00 | 0.00 | 0.00 | 37 | 1003.8 |
| 20260504185610 | 22 | 312 | 4.8 | 19.3 | 0.00 | 0.00 | 0.00 | 39 | 1003.8 |
| 20260504185052 | 22 | 265 | 4.8 | 12.9 | 0.00 | 0.00 | 0.00 | 37 | 1003.8 |
| 20260504184531 | 22 | 251 | 1.6 | 14.5 | 0.00 | 0.00 | 0.00 | 39 | 1004.0 |
| 20260504184001 | 22 | 54 | 1.6 | 9.7 | 0.00 | 0.00 | 0.00 | 39 | 1004.0 |
| 20260504183554 | 22 | 345 | 3.2 | 9.7 | 0.00 | 0.00 | 0.00 | 41 | 1004.1 |
| 20260504183033 | 21 | 103 | 4.8 | 16.1 | 0.00 | 0.00 | 0.00 | 38 | 1004.1 |
| 20260504182503 | 21 | 299 | 4.8 | 16.1 | 0.00 | 0.00 | 0.00 | 40 | 1004.2 |
| 20260504182058 | 21 | 329 | 3.2 | 20.9 | 0.00 | 0.00 | 0.00 | 40 | 1004.2 |
| 20260504181536 | 21 | 231 | 6.4 | 20.9 | 0.00 | 0.00 | 0.00 | 41 | 1004.3 |
| 20260504181007 | 21 | 270 | 3.2 | 19.3 | 0.00 | 0.00 | 0.00 | 42 | 1004.2 |
| 20260504180603 | 21 | 341 | 6.4 | 19.3 | 0.00 | 0.00 | 0.00 | 40 | 1004.5 |
| 20260504180040 | 21 | 284 | 4.8 | 17.7 | 0.00 | 0.00 | 0.00 | 40 | 1004.3 |
| 20260504175513 | 21 | 19 | 6.4 | 17.7 | 0.00 | 0.00 | 0.00 | 42 | 1004.4 |
| 20260504175104 | 21 | 302 | 6.4 | 22.5 | 0.00 | 0.00 | 0.00 | 43 | 1004.4 |
| 20260504174542 | 21 | 233 | 8.0 | 22.5 | 0.00 | 0.00 | 0.00 | 41 | 1004.4 |
| 20260504174023 | 21 | 279 | 4.8 | 14.5 | 0.00 | 0.00 | 0.00 | 42 | 1004.4 |
| 20260504173605 | 21 | 169 | 3.2 | 19.3 | 0.00 | 0.00 | 0.00 | 46 | 1004.4 |
| 20260504173045 | 20 | 313 | 4.8 | 22.5 | 0.00 | 0.00 | 0.00 | 44 | 1004.5 |
| 20260504172516 | 20 | 267 | 6.4 | 22.5 | 0.00 | 0.00 | 0.00 | 45 | 1004.4 |
| 20260504172107 | 20 | 316 | 4.8 | 17.7 | 0.00 | 0.00 | 0.00 | 45 | 1004.5 |
| 20260504171550 | 20 | 226 | 4.8 | 19.3 | 0.00 | 0.00 | 0.00 | 46 | 1004.5 |
| 20260504171028 | 20 | 303 | 9.7 | 19.3 | 0.00 | 0.00 | 0.00 | 45 | 1004.5 |
| 20260504170611 | 20 | 317 | 6.4 | 17.7 | 0.00 | 0.00 | 0.00 | 44 | 1004.5 |
| 20260504160110 | 18 | 309 | 3.2 | 16.1 | 0.00 | 0.00 | 0.00 | 49 | 1005.2 |
| 20260504151045 | 16 | 260 | 4.8 | 22.5 | 0.00 | 0.00 | 0.00 | 51 | 1005.7 |
| 20260504150515 | 16 | 258 | 6.4 | 17.7 | 0.00 | 0.00 | 0.00 | 50 | 1005.7 |
| 20260504150107 | 16 | 317 | 6.4 | 17.7 | 0.00 | 0.00 | 0.00 | 51 | 1005.8 |
| 20260504141057 | 15 | 235 | 6.4 | 19.3 | 0.00 | 0.00 | 0.00 | 51 | 1005.7 |
| 20260504140537 | 15 | 269 | 3.2 | 16.1 | 0.00 | 0.00 | 0.00 | 52 | 1005.9 |
| 20260504130545 | 13 | 321 | 6.4 | 17.7 | 0.00 | 0.00 | 0.00 | 56 | 1006.5 |
| 20260504110502 | 8 | 291 | 3.2 | 6.4 | 0.00 | 0.00 | 0.00 | 64 | 1006.7 |
| 20260504100518 | 7 | 263 | 3.2 | 12.9 | 0.00 | 0.00 | 0.00 | 64 | 1006.6 |
| 20260504100110 | 7 | 277 | 1.6 | 9.7 | 0.00 | 0.00 | 0.00 | 63 | 1006.6 |
| 20260504081533 | 9 | 360 | 1.6 | 6.4 | 0.00 | 0.00 | 0.00 | 58 | 1007.3 |
| 20260504081003 | 9 | 217 | 1.6 | 8.0 | 0.00 | 0.00 | 0.00 | 57 | 1007.4 |
| 20260504080556 | 9 | 286 | 3.2 | 9.7 | 0.00 | 0.00 | 0.00 | 57 | 1007.4 |
| 20260504050524 | 8 | 294 | 1.6 | 8.0 | 0.00 | 0.00 | 0.00 | 61 | 1008.5 |
| 20260504050106 | 8 | 296 | 3.2 | 8.0 | 0.00 | 0.00 | 0.00 | 61 | 1008.5 |
| 20260504045548 | 8 | 254 | 0.0 | 4.8 | 0.00 | 0.00 | 0.00 | 62 | 1008.5 |
| 20260504045015 | 8 | 254 | 1.6 | 6.4 | 0.00 | 0.00 | 0.00 | 62 | 1008.5 |
| 20260504044621 | 8 | 257 | 1.6 | 6.4 | 0.00 | 0.00 | 0.00 | 62 | 1008.5 |
| 20260504044049 | 8 | 258 | 1.6 | 6.4 | 0.00 | 0.00 | 0.00 | 63 | 1008.5 |
| 20260504043529 | 8 | 257 | 1.6 | 6.4 | 0.00 | 0.00 | 0.00 | 63 | 1008.5 |
| 20260504043113 | 8 | 360 | 0.0 | 4.8 | 0.00 | 0.00 | 0.00 | 64 | 1008.6 |
| 20260504042550 | 8 | 360 | 0.0 | 6.4 | 0.00 | 0.00 | 0.00 | 64 | 1008.6 |
| 20260504042030 | 8 | 254 | 0.0 | 6.4 | 0.00 | 0.00 | 0.00 | 64 | 1008.6 |
| 20260504041612 | 8 | 242 | 1.6 | 4.8 | 0.00 | 0.00 | 0.00 | 64 | 1008.6 |
| 20260504041053 | 8 | 241 | 1.6 | 3.2 | 0.00 | 0.00 | 0.00 | 64 | 1008.7 |
| 20260504040523 | 8 | 241 | 1.6 | 4.8 | 0.00 | 0.00 | 0.00 | 65 | 1008.7 |
| 20260504040002 | 8 | 241 | 0.0 | 1.6 | 0.00 | 0.00 | 0.00 | 64 | 1008.7 |
| 20260504035557 | 8 | 240 | 0.0 | 3.2 | 0.00 | 0.00 | 0.00 | 64 | 1008.6 |
| 20260504035036 | 8 | 240 | 1.6 | 4.8 | 0.00 | 0.00 | 0.00 | 64 | 1008.6 |
| 20260504034506 | 8 | 240 | 1.6 | 4.8 | 0.00 | 0.00 | 0.00 | 64 | 1008.6 |
| 20260504034059 | 8 | 279 | 0.0 | 0.0 | 0.00 | 0.00 | 0.00 | 64 | 1008.6 |
| 20260504033540 | 8 | 279 | 0.0 | 0.0 | 0.00 | 0.00 | 0.00 | 62 | 1008.6 |
| 20260504033013 | 8 | 279 | 0.0 | 0.0 | 0.00 | 0.00 | 0.00 | 62 | 1008.6 |
| 20260504032602 | 9 | 279 | 0.0 | 0.0 | 0.00 | 0.00 | 0.00 | 61 | 1008.6 |
| 20260504032042 | 9 | 279 | 0.0 | 0.0 | 0.00 | 0.00 | 0.00 | 60 | 1008.7 |
| 20260504031523 | 10 | 279 | 0.0 | 1.6 | 0.00 | 0.00 | 0.00 | 58 | 1008.8 |
| 20260504031105 | 10 | 279 | 0.0 | 3.2 | 0.00 | 0.00 | 0.00 | 57 | 1008.8 |
| 20260504030547 | 10 | 279 | 0.0 | 3.2 | 0.00 | 0.00 | 0.00 | 57 | 1008.8 |
| 20260504030017 | 10 | 280 | 0.0 | 0.0 | 0.00 | 0.00 | 0.00 | 56 | 1008.8 |
| 20260504025609 | 10 | 280 | 0.0 | 0.0 | 0.00 | 0.00 | 0.00 | 55 | 1008.7 |
| 20260504025050 | 11 | 280 | 0.0 | 3.2 | 0.00 | 0.00 | 0.00 | 54 | 1008.6 |
| 20260504024532 | 11 | 280 | 0.0 | 9.7 | 0.00 | 0.00 | 0.00 | 53 | 1008.7 |
| 20260504024000 | 11 | 280 | 1.6 | 9.7 | 0.00 | 0.00 | 0.00 | 51 | 1008.7 |
| 20260504023553 | 11 | 255 | 1.6 | 6.4 | 0.00 | 0.00 | 0.00 | 52 | 1008.7 |
| 20260504023034 | 11 | 246 | 1.6 | 11.3 | 0.00 | 0.00 | 0.00 | 51 | 1008.7 |
| 20260504022507 | 11 | 284 | 3.2 | 12.9 | 0.00 | 0.00 | 0.00 | 51 | 1008.7 |
| 20260504022100 | 11 | 226 | 3.2 | 12.9 | 0.00 | 0.00 | 0.00 | 50 | 1008.8 |
| 20260504021539 | 11 | 300 | 3.2 | 11.3 | 0.00 | 0.00 | 0.00 | 50 | 1008.9 |
| 20260504021007 | 11 | 228 | 3.2 | 14.5 | 0.00 | 0.00 | 0.00 | 50 | 1008.9 |
| 20260504020558 | 11 | 238 | 4.8 | 16.1 | 0.00 | 0.00 | 0.00 | 51 | 1008.9 |
| 20260504020038 | 11 | 360 | 3.2 | 16.1 | 0.00 | 0.00 | 0.00 | 51 | 1009.0 |
| 20260504015510 | 11 | 360 | 3.2 | 14.5 | 0.00 | 0.00 | 0.00 | 51 | 1009.0 |
| 20260504015102 | 11 | 360 | 4.8 | 9.7 | 0.00 | 0.00 | 0.00 | 51 | 1009.0 |
| 20260504014545 | 12 | 360 | 3.2 | 9.7 | 0.00 | 0.00 | 0.00 | 51 | 1009.0 |
| 20260504014014 | 12 | 360 | 3.2 | 14.5 | 0.00 | 0.00 | 0.00 | 50 | 1009.1 |
| 20260504013608 | 12 | 360 | 3.2 | 14.5 | 0.00 | 0.00 | 0.00 | 49 | 1009.2 |
| 20260504013053 | 12 | 360 | 3.2 | 8.0 | 0.00 | 0.00 | 0.00 | 48 | 1009.1 |
| 20260504012529 | 12 | 360 | 3.2 | 8.0 | 0.00 | 0.00 | 0.00 | 48 | 1009.2 |
| 20260504012109 | 12 | 360 | 3.2 | 16.1 | 0.00 | 0.00 | 0.00 | 47 | 1009.1 |
| 20260504011549 | 12 | 360 | 1.6 | 20.9 | 0.00 | 0.00 | 0.00 | 47 | 1009.0 |
| 20260504011019 | 12 | 360 | 8.0 | 19.3 | 0.00 | 0.00 | 0.00 | 47 | 1008.9 |
| 20260504010612 | 12 | 360 | 4.8 | 24.1 | 0.00 | 0.00 | 0.00 | 47 | 1008.9 |
| 20260504010101 | 12 | 34 | 6.4 | 24.1 | 0.00 | 0.00 | 0.00 | 48 | 1008.8 |
| 20260504005533 | 12 | 360 | 3.2 | 20.9 | 0.00 | 0.00 | 0.00 | 49 | 1008.9 |
| 20260504005006 | 12 | 360 | 8.0 | 20.9 | 0.00 | 0.00 | 0.00 | 49 | 1009.1 |
| 20260504004608 | 12 | 41 | 6.4 | 19.3 | 0.00 | 0.00 | 0.00 | 49 | 1009.0 |
| 20260504004037 | 12 | 360 | 3.2 | 19.3 | 0.00 | 0.00 | 0.00 | 50 | 1009.2 |
| 20260504003508 | 12 | 360 | 4.8 | 24.1 | 0.00 | 0.00 | 0.00 | 49 | 1009.3 |
| 20260504003100 | 12 | 360 | 6.4 | 29.0 | 0.00 | 0.00 | 0.00 | 48 | 1009.3 |
| 20260504002539 | 12 | 360 | 8.0 | 29.0 | 0.00 | 0.00 | 0.00 | 48 | 1009.4 |
| 20260504002014 | 12 | 45 | 3.2 | 25.7 | 0.00 | 0.00 | 0.00 | 48 | 1009.4 |
| 20260504001609 | 12 | 360 | 8.0 | 25.7 | 0.00 | 0.00 | 0.00 | 46 | 1009.3 |
| 20260504001042 | 12 | 360 | 6.4 | 37.0 | 0.00 | 0.00 | 0.00 | 47 | 1009.2 |
| 20260504000511 | 12 | 42 | 4.8 | 25.7 | 0.00 | 0.00 | 0.00 | 47 | 1009.2 |
| 20260504000134 | 12 | 360 | 11.3 | 25.7 | 0.00 | 0.00 | 0.00 | 46 | 1009.5 |
| 20260503235543 | 12 | 360 | 4.8 | 20.9 | 0.00 | 0.00 | 0.00 | 46 | 1009.3 |
| 20260503235014 | 12 | 360 | 1.6 | 14.5 | 0.00 | 0.00 | 0.00 | 47 | 1009.4 |
| 20260503234607 | 12 | 360 | 3.2 | 12.9 | 0.00 | 0.00 | 0.00 | 46 | 1009.1 |
| 20260503234048 | 12 | 22 | 3.2 | 17.7 | 0.00 | 0.00 | 0.00 | 45 | 1009.1 |
| 20260503233527 | 11 | 360 | 3.2 | 17.7 | 0.00 | 0.00 | 0.00 | 46 | 1009.1 |
| 20260503233111 | 11 | 213 | 3.2 | 9.7 | 0.00 | 0.00 | 0.00 | 47 | 1009.2 |
| 20260503232550 | 11 | 360 | 4.8 | 20.9 | 0.00 | 0.00 | 0.00 | 47 | 1009.2 |
| 20260503232019 | 12 | 360 | 3.2 | 20.9 | 0.00 | 0.00 | 0.00 | 47 | 1009.2 |
| 20260503231612 | 12 | 360 | 4.8 | 29.0 | 0.00 | 0.00 | 0.00 | 47 | 1009.2 |
| 20260503231053 | 12 | 360 | 8.0 | 29.0 | 0.00 | 0.00 | 0.00 | 46 | 1009.5 |
| 20260503230526 | 12 | 360 | 6.4 | 20.9 | 0.00 | 0.00 | 0.00 | 45 | 1009.4 |
| 20260503230113 | 12 | 360 | 6.4 | 35.4 | 0.00 | 0.00 | 0.00 | 45 | 1009.3 |
| 20260503225550 | 12 | 29 | 8.0 | 35.4 | 0.00 | 0.00 | 0.00 | 46 | 1009.3 |
| 20260503225033 | 12 | 360 | 6.4 | 17.7 | 0.00 | 0.00 | 0.00 | 45 | 1009.2 |
| 20260503224612 | 12 | 360 | 4.8 | 20.9 | 0.00 | 0.00 | 0.00 | 47 | 1009.3 |
| 20260503224054 | 12 | 360 | 4.8 | 27.4 | 0.00 | 0.00 | 0.00 | 46 | 1009.3 |
| 20260503223524 | 12 | 360 | 6.4 | 27.4 | 0.00 | 0.00 | 0.00 | 45 | 1009.0 |
| 20260503223004 | 13 | 355 | 8.0 | 19.3 | 0.00 | 0.00 | 0.00 | 43 | 1009.1 |
| 20260503222556 | 13 | 235 | 4.8 | 22.5 | 0.00 | 0.00 | 0.00 | 44 | 1008.9 |
| 20260503222035 | 13 | 34 | 6.4 | 22.5 | 0.00 | 0.00 | 0.00 | 41 | 1009.0 |
| 20260503221505 | 13 | 96 | 6.4 | 17.7 | 0.00 | 0.00 | 0.00 | 42 | 1009.0 |
| 20260503221056 | 13 | 78 | 4.8 | 17.7 | 0.00 | 0.00 | 0.00 | 40 | 1008.9 |
| 20260503220536 | 13 | 351 | 6.4 | 19.3 | 0.00 | 0.00 | 0.00 | 41 | 1008.7 |
| 20260503220005 | 13 | 342 | 6.4 | 19.3 | 0.00 | 0.00 | 0.00 | 39 | 1008.8 |
| 20260503215557 | 13 | 32 | 4.8 | 20.9 | 0.00 | 0.00 | 0.00 | 40 | 1008.8 |